• In Hungary
  • List of Countries
  • For 7 days
  • Water Temperature
  • Satellite Maps
  • Weather Map
  • News
  • Weather Widgets
  • user-avatar
    Login

    Hourly Weather Podkowa Lesna

    Today, 18 February, Sunday

    Time Temperature Precipitation Wind Pressure Humidity
    00:00 -2°C° 0 mm 2 mps 756 mmHg 93%
    01:00 -2°C° 0 mm 2 mps 756 mmHg 93%
    02:00 -2°C° 0 mm 2 mps 757 mmHg 92%
    03:00 -2°C° 0 mm 2 mps 757 mmHg 92%
    04:00 -2°C° 0 mm 2 mps 757 mmHg 92%
    05:00 -2°C° 0 mm 2 mps 757 mmHg 92%
    06:00 -3°C° 0 mm 2 mps 758 mmHg 91%
    07:00 -3°C° 0 mm 2 mps 758 mmHg 91%
    08:00 -2°C° 0 mm 3 mps 758 mmHg 85%
    09:00 -2°C° 0 mm 3 mps 759 mmHg 80%
    10:00 -1°C° 0 mm 3 mps 759 mmHg 74%
    11:00 -1°C° 0 mm 3 mps 759 mmHg 72%
    12:00 -1°C° 0 mm 3 mps 759 mmHg 69%
    13:00 0°C° 0 mm 3 mps 760 mmHg 66%
    14:00 -1°C° 0 mm 3 mps 760 mmHg 67%
    15:00 -1°C° 0 mm 3 mps 760 mmHg 67%
    16:00 -1°C° 0 mm 2 mps 760 mmHg 68%
    17:00 -1°C° 0 mm 2 mps 760 mmHg 71%
    18:00 -1°C° 0 mm 2 mps 760 mmHg 73%
    19:00 0°C° 0 mm 1 mps 760 mmHg 76%
    20:00 0°C° 0 mm 1 mps 760 mmHg 77%
    21:00 0°C° 0 mm 1 mps 760 mmHg 78%
    22:00 0°C° 0 mm 1 mps 760 mmHg 79%
    23:00 0°C° 0 mm 1 mps 760 mmHg 80%

    Tomorrow, 19 February, Monday

    Time Temperature Precipitation Wind Pressure Humidity
    00:00 0°C° 0 mm 1 mps 760 mmHg 81%
    01:00 -1°C° 0 mm 1 mps 760 mmHg 81%
    02:00 -1°C° 0 mm 1 mps 760 mmHg 81%
    03:00 -1°C° 0 mm 1 mps 760 mmHg 81%
    04:00 -1°C° 0 mm 1 mps 760 mmHg 81%
    05:00 -1°C° 0 mm 1 mps 760 mmHg 80%
    06:00 -1°C° 0 mm 1 mps 759 mmHg 80%
    07:00 -1°C° 0 mm 1 mps 759 mmHg 79%
    08:00 0°C° 0 mm 1 mps 759 mmHg 75%
    09:00 0°C° 0 mm 1 mps 759 mmHg 70%
    10:00 +1°C° 0 mm 1 mps 759 mmHg 65%
    11:00 +2°C° 0 mm 1 mps 759 mmHg 63%
    12:00 +2°C° 0 mm 1 mps 759 mmHg 61%
    13:00 +2°C° 0 mm 1 mps 759 mmHg 59%
    14:00 +2°C° 0 mm 1 mps 758 mmHg 61%
    15:00 +2°C° 0 mm 1 mps 758 mmHg 63%
    16:00 +2°C° 0 mm 1 mps 758 mmHg 66%
    17:00 +1°C° 0 mm 1 mps 758 mmHg 68%
    18:00 +1°C° 0 mm 1 mps 758 mmHg 71%
    19:00 -2°C° 0 mm 2 mps 758 mmHg 73%
    20:00 -2°C° 0 mm 2 mps 757 mmHg 74%
    21:00 -2°C° 0 mm 2 mps 757 mmHg 75%
    22:00 -2°C° 0 mm 2 mps 757 mmHg 76%
    23:00 -2°C° 0 mm 2 mps 757 mmHg 76%

    Day after tomorrow, 20 February, Tuesday

    Time Temperature Precipitation Wind Pressure Humidity
    00:00 -3°C° 0 mm 2 mps 757 mmHg 77%
    01:00 -3°C° 0 mm 2 mps 757 mmHg 77%
    02:00 -3°C° 0 mm 2 mps 757 mmHg 77%
    03:00 -3°C° 0 mm 2 mps 756 mmHg 78%
    04:00 -3°C° 0 mm 2 mps 756 mmHg 78%
    05:00 -3°C° 0 mm 2 mps 756 mmHg 78%
    06:00 -3°C° 0 mm 2 mps 756 mmHg 78%
    07:00 -4°C° 0 mm 3 mps 756 mmHg 78%
    08:00 -4°C° 0 mm 3 mps 756 mmHg 73%
    09:00 -2°C° 0 mm 3 mps 756 mmHg 68%
    10:00 -1°C° 0 mm 3 mps 756 mmHg 63%
    11:00 -1°C° 0 mm 3 mps 756 mmHg 60%
    12:00 0°C° 0 mm 3 mps 756 mmHg 58%
    13:00 0°C° 0 mm 3 mps 755 mmHg 55%
    14:00 0°C° 0 mm 3 mps 755 mmHg 58%
    15:00 0°C° 0 mm 3 mps 755 mmHg 60%
    16:00 0°C° 0 mm 3 mps 755 mmHg 62%
    17:00 -1°C° 0 mm 3 mps 755 mmHg 66%
    18:00 -2°C° 0 mm 3 mps 755 mmHg 69%
    19:00 -2°C° 0 mm 3 mps 755 mmHg 73%
    20:00 -4°C° 0 mm 3 mps 755 mmHg 73%
    21:00 -4°C° 0 mm 3 mps 755 mmHg 74%
    22:00 -3°C° 0 mm 2 mps 755 mmHg 75%
    23:00 -3°C° 0 mm 2 mps 755 mmHg 76%

    21 February, Wednesday

    Time Temperature Precipitation Wind Pressure Humidity
    00:00 -3°C° 0 mm 2 mps 755 mmHg 76%
    01:00 -3°C° 0 mm 2 mps 755 mmHg 77%
    02:00 -3°C° 0 mm 2 mps 755 mmHg 78%
    03:00 -4°C° 0 mm 2 mps 755 mmHg 79%
    04:00 -4°C° 0 mm 2 mps 755 mmHg 80%
    05:00 -4°C° 0 mm 2 mps 755 mmHg 80%
    06:00 -4°C° 0 mm 2 mps 755 mmHg 81%
    07:00 -4°C° 0 mm 2 mps 755 mmHg 82%
    08:00 -3°C° 0 mm 2 mps 755 mmHg 77%
    09:00 -3°C° 0 mm 2 mps 755 mmHg 72%
    10:00 -2°C° 0 mm 3 mps 755 mmHg 66%
    11:00 -1°C° 0 mm 3 mps 755 mmHg 63%
    12:00 -1°C° 0 mm 3 mps 755 mmHg 60%
    13:00 0°C° 0 mm 3 mps 755 mmHg 57%
    14:00 0°C° 0 mm 3 mps 755 mmHg 59%
    15:00 0°C° 0 mm 3 mps 755 mmHg 61%
    16:00 -1°C° 0 mm 3 mps 755 mmHg 63%
    17:00 -1°C° 0 mm 3 mps 755 mmHg 66%
    18:00 -2°C° 0 mm 3 mps 755 mmHg 70%
    19:00 -4°C° 0 mm 3 mps 755 mmHg 73%
    20:00 -3°C° 0 mm 2 mps 755 mmHg 74%
    21:00 -3°C° 0 mm 2 mps 756 mmHg 76%
    22:00 -3°C° 0 mm 2 mps 756 mmHg 77%
    23:00 -3°C° 0 mm 2 mps 756 mmHg 77%

    22 February, Thursday

    Time Temperature Precipitation Wind Pressure Humidity
    00:00 -3°C° 0 mm 2 mps 756 mmHg 78%
    01:00 -3°C° 0 mm 2 mps 756 mmHg 79%
    02:00 -4°C° 0 mm 3 mps 756 mmHg 80%
    03:00 -5°C° 0 mm 3 mps 756 mmHg 81%
    04:00 -5°C° 0 mm 3 mps 755 mmHg 82%
    05:00 -5°C° 0 mm 3 mps 755 mmHg 83%
    06:00 -5°C° 0 mm 3 mps 756 mmHg 83%
    07:00 -5°C° 0 mm 3 mps 756 mmHg 84%
    08:00 -5°C° 0 mm 3 mps 756 mmHg 79%
    09:00 -4°C° 0 mm 4 mps 755 mmHg 74%
    10:00 -3°C° 0 mm 4 mps 755 mmHg 70%
    11:00 -3°C° 0 mm 4 mps 755 mmHg 67%
    12:00 -2°C° 0 mm 4 mps 755 mmHg 64%
    13:00 -2°C° 0 mm 4 mps 754 mmHg 62%
    14:00 -2°C° 0 mm 4 mps 754 mmHg 63%
    15:00 -2°C° 0 mm 4 mps 754 mmHg 64%
    16:00 -3°C° 0 mm 4 mps 753 mmHg 66%
    17:00 -3°C° 0 mm 4 mps 753 mmHg 68%
    18:00 -3°C° 0 mm 4 mps 753 mmHg 70%
    19:00 -4°C° 0 mm 4 mps 753 mmHg 72%
    20:00 -4°C° 0 mm 4 mps 753 mmHg 72%
    21:00 -4°C° 0 mm 3 mps 753 mmHg 72%
    22:00 -4°C° 0 mm 3 mps 752 mmHg 72%
    23:00 -4°C° 0 mm 3 mps 752 mmHg 73%

    23 February, Friday

    Time Temperature Precipitation Wind Pressure Humidity
    00:00 -4°C° 0 mm 3 mps 751 mmHg 73%
    01:00 -4°C° 0 mm 3 mps 751 mmHg 74%
    02:00 -4°C° 0.1 mm 4 mps 751 mmHg 75%
    03:00 -5°C° 0.1 mm 4 mps 750 mmHg 76%
    04:00 -5°C° 0.1 mm 4 mps 750 mmHg 77%
    05:00 -5°C° 0.1 mm 4 mps 750 mmHg 77%
    06:00 -5°C° 0.1 mm 4 mps 749 mmHg 77%
    07:00 -5°C° 0.1 mm 4 mps 749 mmHg 78%
    08:00 -5°C° 0.1 mm 4 mps 749 mmHg 74%
    09:00 -5°C° 0.1 mm 4 mps 749 mmHg 71%
    10:00 -5°C° 0.1 mm 4 mps 749 mmHg 67%
    11:00 -4°C° 0 mm 4 mps 748 mmHg 65%
    12:00 -4°C° 0 mm 4 mps 748 mmHg 62%
    13:00 -5°C° 0 mm 5 mps 748 mmHg 59%
    14:00 -5°C° 0 mm 5 mps 747 mmHg 58%
    15:00 -4°C° 0 mm 4 mps 747 mmHg 58%
    16:00 -4°C° 0 mm 4 mps 747 mmHg 57%
    17:00 -5°C° 0 mm 4 mps 747 mmHg 58%
    18:00 -5°C° 0 mm 4 mps 747 mmHg 59%
    19:00 -5°C° 0 mm 4 mps 747 mmHg 60%
    20:00 -5°C° 0.1 mm 4 mps 747 mmHg 62%
    21:00 -7°C° 0.1 mm 4 mps 747 mmHg 64%
    22:00 -7°C° 0.1 mm 4 mps 747 mmHg 66%
    23:00 -7°C° 0.1 mm 4 mps 747 mmHg 66%
    Show more